Time,TemperatureF,DewpointF,PressureIn,WindDirection,WindDirectionDegrees,WindSpeedMPH,WindSpeedGustMPH,Humidity,HourlyPrecipIn,Conditions,Clouds,dailyrainin,SoftwareType,DateUTC
2014-01-20 00:01:00,34.2,26.5,29.64,SSE,149,0.0,0.0,73,0.00,,CLR,0.00,VWS V14.01,2014-01-20 05:01:00,
2014-01-20 00:02:00,34.2,26.0,29.64,SSE,149,0.0,0.0,72,0.00,,CLR,0.00,VWS V14.01,2014-01-20 05:02:00,
2014-01-20 00:04:00,34.2,26.4,29.64,SSE,149,0.0,0.0,73,0.00,,CLR,0.00,VWS V14.01,2014-01-20 05:04:00,
2014-01-20 00:06:00,34.2,26.1,29.64,SSE,149,0.0,0.0,72,0.00,,CLR,0.00,VWS V14.01,2014-01-20 05:06:00,
2014-01-20 00:09:00,34.2,26.1,29.64,SSE,149,0.0,0.0,72,0.00,,CLR,0.00,VWS V14.01,2014-01-20 05:09:00,
2014-01-20 00:14:00,34.3,26.2,29.64,SSE,149,0.0,0.0,72,0.00,,CLR,0.00,VWS V14.01,2014-01-20 05:14:00,
2014-01-20 00:19:00,34.3,26.1,29.64,SSE,149,0.0,0.0,72,0.00,,CLR,0.00,VWS V14.01,2014-01-20 05:19:00,
2014-01-20 00:24:00,34.2,26.0,29.64,SSE,149,0.0,0.0,72,0.00,,CLR,0.00,VWS V14.01,2014-01-20 05:24:00,
2014-01-20 00:29:00,34.3,26.1,29.64,SSE,149,0.0,0.0,72,0.00,,CLR,0.00,VWS V14.01,2014-01-20 05:29:00,
2014-01-20 00:34:00,34.1,26.3,29.63,SSE,149,0.0,0.0,73,0.00,,CLR,0.00,VWS V14.01,2014-01-20 05:34:00,
2014-01-20 00:39:00,33.8,26.1,29.62,SSE,149,0.0,0.0,73,0.00,,CLR,0.00,VWS V14.01,2014-01-20 05:39:00,
2014-01-20 00:44:00,33.8,26.1,29.63,SSE,149,0.0,0.0,73,0.00,,CLR,0.00,VWS V14.01,2014-01-20 05:44:00,
2014-01-20 00:49:00,33.7,25.5,29.63,SSE,149,0.0,0.0,72,0.00,,CLR,0.00,VWS V14.01,2014-01-20 05:49:00,
2014-01-20 00:54:00,33.8,25.9,29.63,SSE,149,0.0,0.0,73,0.00,,CLR,0.00,VWS V14.01,2014-01-20 05:54:00,
2014-01-20 00:59:00,33.8,25.7,29.63,SSE,149,0.0,0.0,72,0.00,,CLR,0.00,VWS V14.01,2014-01-20 05:59:00,
2014-01-20 01:04:00,33.8,25.6,29.62,SSE,149,0.0,0.0,72,0.00,,CLR,0.00,VWS V14.01,2014-01-20 06:04:00,
2014-01-20 01:09:00,33.7,25.9,29.62,SSE,149,0.0,0.0,73,0.00,,CLR,0.00,VWS V14.01,2014-01-20 06:09:00,
2014-01-20 01:14:00,33.6,25.7,29.62,SSE,149,0.0,0.0,72,0.00,,CLR,0.00,VWS V14.01,2014-01-20 06:14:00,
2014-01-20 01:19:00,33.8,26.1,29.63,SSE,149,0.0,0.0,73,0.00,,CLR,0.00,VWS V14.01,2014-01-20 06:19:00,
2014-01-20 01:24:00,33.6,25.7,29.62,SSE,149,0.0,0.0,72,0.00,,CLR,0.00,VWS V14.01,2014-01-20 06:24:00,
2014-01-20 01:29:00,33.6,25.9,29.62,SSE,149,0.0,0.0,73,0.00,,CLR,0.00,VWS V14.01,2014-01-20 06:29:00,
2014-01-20 01:35:00,33.5,26.0,29.62,SSE,149,0.0,0.0,74,0.00,,CLR,0.00,VWS V14.01,2014-01-20 06:35:00,
2014-01-20 01:40:00,33.3,26.0,29.62,SSE,149,0.0,0.0,74,0.00,,CLR,0.00,VWS V14.01,2014-01-20 06:40:00,
2014-01-20 01:45:00,33.3,25.7,29.62,SSE,149,0.0,0.0,73,0.00,,CLR,0.00,VWS V14.01,2014-01-20 06:45:00,
2014-01-20 01:50:00,33.6,26.1,29.62,SSE,149,0.0,0.0,74,0.00,,CLR,0.00,VWS V14.01,2014-01-20 06:50:00,
2014-01-20 01:55:00,33.6,25.6,29.62,SSE,149,0.0,0.0,72,0.00,,CLR,0.00,VWS V14.01,2014-01-20 06:55:00,
2014-01-20 02:00:00,33.7,25.7,29.63,SSE,149,0.0,0.0,72,0.00,,CLR,0.00,VWS V14.01,2014-01-20 07:00:00,
2014-01-20 02:05:00,33.8,25.8,29.63,SSE,149,0.0,0.0,72,0.00,,CLR,0.00,VWS V14.01,2014-01-20 07:05:00,
2014-01-20 02:10:00,33.9,25.9,29.63,SSE,149,0.0,0.0,72,0.00,,CLR,0.00,VWS V14.01,2014-01-20 07:10:00,
2014-01-20 02:15:00,33.9,25.7,29.63,SSE,149,0.0,0.0,72,0.00,,CLR,0.00,VWS V14.01,2014-01-20 07:15:00,
2014-01-20 02:20:00,33.9,25.9,29.63,SSE,149,0.0,0.0,72,0.00,,CLR,0.00,VWS V14.01,2014-01-20 07:20:00,
2014-01-20 02:25:00,34.0,26.2,29.63,SSE,149,0.0,0.0,73,0.00,,CLR,0.00,VWS V14.01,2014-01-20 07:25:00,
2014-01-20 02:30:00,34.3,26.1,29.63,SSE,149,0.0,0.0,72,0.00,,CLR,0.00,VWS V14.01,2014-01-20 07:30:00,
2014-01-20 02:35:00,34.5,25.8,29.64,SSE,149,0.0,0.0,70,0.00,,CLR,0.00,VWS V14.01,2014-01-20 07:35:00,
2014-01-20 02:40:00,34.8,25.9,29.64,SSE,149,0.0,0.0,70,0.00,,CLR,0.00,VWS V14.01,2014-01-20 07:40:00,
2014-01-20 02:45:00,34.9,26.2,29.64,SSE,149,0.0,0.0,70,0.00,,CLR,0.00,VWS V14.01,2014-01-20 07:45:00,
2014-01-20 02:50:00,34.9,25.7,29.64,SSE,149,0.0,0.0,69,0.00,,CLR,0.00,VWS V14.01,2014-01-20 07:50:00,
2014-01-20 02:55:00,34.9,26.2,29.63,SSE,149,0.0,0.0,70,0.00,,CLR,0.00,VWS V14.01,2014-01-20 07:55:00,
2014-01-20 03:00:00,35.0,26.1,29.63,SSE,149,0.0,0.0,70,0.00,,CLR,0.00,VWS V14.01,2014-01-20 08:00:00,
2014-01-20 03:05:00,34.8,26.1,29.63,SSE,149,0.0,0.0,70,0.00,,CLR,0.00,VWS V14.01,2014-01-20 08:05:00,
2014-01-20 03:10:00,34.9,26.0,29.63,SSE,149,0.0,0.0,70,0.00,,CLR,0.00,VWS V14.01,2014-01-20 08:10:00,
2014-01-20 03:15:00,34.8,26.4,29.63,SSE,149,0.0,0.0,71,0.00,,CLR,0.00,VWS V14.01,2014-01-20 08:15:00,
2014-01-20 03:20:00,34.6,26.4,29.63,SSE,149,0.0,0.0,72,0.00,,CLR,0.00,VWS V14.01,2014-01-20 08:20:00,
2014-01-20 03:25:00,34.4,26.2,29.64,SSE,149,0.0,0.0,72,0.00,,CLR,0.00,VWS V14.01,2014-01-20 08:25:00,
2014-01-20 03:31:00,34.3,26.5,29.64,SSE,149,0.0,0.0,73,0.00,,CLR,0.00,VWS V14.01,2014-01-20 08:31:00,
2014-01-20 03:36:00,34.1,26.5,29.64,SSE,149,0.0,0.0,73,0.00,,CLR,0.00,VWS V14.01,2014-01-20 08:36:00,
2014-01-20 03:41:00,33.8,26.4,29.65,SSE,149,0.0,0.0,74,0.00,,CLR,0.00,VWS V14.01,2014-01-20 08:41:00,
2014-01-20 03:46:00,33.7,26.5,29.65,SSE,149,0.0,0.0,75,0.00,,CLR,0.00,VWS V14.01,2014-01-20 08:46:00,
2014-01-20 03:51:00,33.6,26.4,29.65,SSE,149,0.0,0.0,74,0.00,,CLR,0.00,VWS V14.01,2014-01-20 08:51:00,
2014-01-20 03:56:00,33.7,26.1,29.65,SSE,149,0.0,0.0,74,0.00,,CLR,0.00,VWS V14.01,2014-01-20 08:56:00,
2014-01-20 04:01:00,33.7,26.7,29.65,SSE,149,0.0,0.0,75,0.00,,CLR,0.00,VWS V14.01,2014-01-20 09:01:00,
2014-01-20 04:06:00,33.7,26.8,29.65,SSE,149,0.0,0.0,75,0.00,,CLR,0.00,VWS V14.01,2014-01-20 09:06:00,
2014-01-20 04:11:00,33.6,26.7,29.65,SSE,149,0.0,0.0,76,0.00,,CLR,0.00,VWS V14.01,2014-01-20 09:11:00,
2014-01-20 04:16:00,33.6,26.3,29.65,SSE,149,0.0,0.0,74,0.00,,CLR,0.00,VWS V14.01,2014-01-20 09:16:00,
2014-01-20 04:21:00,33.7,26.3,29.65,SSE,149,0.0,0.0,74,0.00,,CLR,0.00,VWS V14.01,2014-01-20 09:21:00,
2014-01-20 04:26:00,34.0,26.4,29.65,SSE,149,0.0,0.0,74,0.00,,CLR,0.00,VWS V14.01,2014-01-20 09:26:00,
2014-01-20 04:31:00,34.1,26.7,29.65,SSE,149,0.0,0.0,74,0.00,,CLR,0.00,VWS V14.01,2014-01-20 09:31:00,
2014-01-20 04:36:00,34.1,26.7,29.64,SSE,149,0.0,0.0,74,0.00,,CLR,0.00,VWS V14.01,2014-01-20 09:36:00,
2014-01-20 04:41:00,34.1,26.5,29.64,SSE,149,0.0,0.0,74,0.00,,CLR,0.00,VWS V14.01,2014-01-20 09:41:00,
2014-01-20 04:46:00,34.2,26.6,29.64,SSE,149,0.0,0.0,73,0.00,,CLR,0.00,VWS V14.01,2014-01-20 09:46:00,
2014-01-20 04:51:00,34.3,26.4,29.63,SSE,149,0.0,0.0,72,0.00,,CLR,0.00,VWS V14.01,2014-01-20 09:51:00,
2014-01-20 04:56:00,34.4,26.7,29.63,SSE,149,0.0,0.0,73,0.00,,CLR,0.00,VWS V14.01,2014-01-20 09:56:00,
2014-01-20 05:02:00,34.4,26.7,29.63,SSE,149,0.0,0.0,73,0.00,,CLR,0.00,VWS V14.01,2014-01-20 10:02:00,
2014-01-20 05:07:00,34.4,26.7,29.63,SSE,149,0.0,0.0,73,0.00,,CLR,0.00,VWS V14.01,2014-01-20 10:07:00,
2014-01-20 05:12:00,34.4,27.0,29.63,SSE,149,0.0,0.0,74,0.00,,CLR,0.00,VWS V14.01,2014-01-20 10:12:00,
2014-01-20 05:17:00,34.2,27.0,29.63,SSE,149,0.0,0.0,75,0.00,,CLR,0.00,VWS V14.01,2014-01-20 10:17:00,
2014-01-20 05:22:00,34.1,27.0,29.63,SSE,149,0.0,0.0,75,0.00,,CLR,0.00,VWS V14.01,2014-01-20 10:22:00,
2014-01-20 05:27:00,34.0,27.3,29.62,SSE,149,0.0,0.0,76,0.00,,CLR,0.00,VWS V14.01,2014-01-20 10:27:00,
2014-01-20 05:32:00,33.9,27.3,29.62,SSE,149,0.0,0.0,76,0.00,,CLR,0.00,VWS V14.01,2014-01-20 10:32:00,
2014-01-20 05:37:00,33.9,27.2,29.62,SSE,149,0.0,0.0,76,0.00,,CLR,0.00,VWS V14.01,2014-01-20 10:37:00,
2014-01-20 05:42:00,33.8,27.4,29.62,SSE,149,0.0,0.0,77,0.00,,CLR,0.00,VWS V14.01,2014-01-20 10:42:00,
2014-01-20 05:47:00,33.6,27.3,29.62,SSE,149,0.0,0.0,77,0.00,,CLR,0.00,VWS V14.01,2014-01-20 10:47:00,
2014-01-20 05:52:00,33.5,27.2,29.61,SSE,149,0.0,0.0,78,0.00,,CLR,0.00,VWS V14.01,2014-01-20 10:52:00,
2014-01-20 05:57:00,33.4,27.3,29.62,SSE,149,0.0,0.0,78,0.00,,CLR,0.00,VWS V14.01,2014-01-20 10:57:00,
2014-01-20 06:02:00,33.3,27.3,29.62,SSE,149,0.0,0.0,78,0.00,,CLR,0.00,VWS V14.01,2014-01-20 11:02:00,
2014-01-20 06:08:00,33.2,27.4,29.62,SSE,149,0.0,0.0,79,0.00,,CLR,0.00,VWS V14.01,2014-01-20 11:08:00,
2014-01-20 06:13:00,33.1,27.2,29.62,SSE,149,0.0,0.0,79,0.00,,CLR,0.00,VWS V14.01,2014-01-20 11:13:00,
2014-01-20 06:18:00,33.1,27.4,29.62,SSE,149,0.0,0.0,79,0.00,,CLR,0.00,VWS V14.01,2014-01-20 11:18:00,
2014-01-20 06:23:00,33.0,27.6,29.62,SSE,149,0.0,0.0,80,0.00,,CLR,0.00,VWS V14.01,2014-01-20 11:23:00,
2014-01-20 06:28:00,32.8,27.5,29.62,SSE,149,0.0,0.0,81,0.00,,CLR,0.00,VWS V14.01,2014-01-20 11:28:00,
2014-01-20 06:33:00,32.7,27.5,29.62,SSE,149,0.0,0.0,81,0.00,,CLR,0.00,VWS V14.01,2014-01-20 11:33:00,
2014-01-20 06:38:00,32.7,27.2,29.63,SSE,149,0.0,0.0,80,0.00,,CLR,0.00,VWS V14.01,2014-01-20 11:38:00,
2014-01-20 06:43:00,32.8,27.4,29.63,SSE,149,0.0,0.0,80,0.00,,CLR,0.00,VWS V14.01,2014-01-20 11:43:00,
2014-01-20 06:48:00,32.8,27.8,29.63,SSE,149,0.0,0.0,82,0.00,,CLR,0.00,VWS V14.01,2014-01-20 11:48:00,
2014-01-20 06:53:00,32.7,27.7,29.64,SSE,149,0.0,0.0,82,0.00,,CLR,0.00,VWS V14.01,2014-01-20 11:53:00,
2014-01-20 06:58:00,32.7,27.0,29.63,SSE,149,0.0,0.0,79,0.00,,CLR,0.00,VWS V14.01,2014-01-20 11:58:00,
2014-01-20 07:03:00,32.9,27.3,29.63,SSE,149,0.0,0.0,80,0.00,,BKN045,0.00,VWS V14.01,2014-01-20 12:03:00,
2014-01-20 07:08:00,33.1,28.0,29.63,SSE,149,0.0,0.0,81,0.00,,BKN045,0.00,VWS V14.01,2014-01-20 12:08:00,
2014-01-20 07:13:00,33.0,27.6,29.63,SSE,149,0.0,0.0,80,0.00,,BKN045,0.00,VWS V14.01,2014-01-20 12:13:00,
2014-01-20 07:18:00,33.0,27.7,29.63,SSE,149,0.0,0.0,81,0.00,,BKN045,0.00,VWS V14.01,2014-01-20 12:18:00,
2014-01-20 07:23:00,33.1,27.5,29.63,SSE,149,0.0,0.0,80,0.00,,BKN045,0.00,VWS V14.01,2014-01-20 12:23:00,
2014-01-20 07:28:00,33.2,27.6,29.63,SSE,149,0.0,0.0,80,0.00,,BKN045,0.00,VWS V14.01,2014-01-20 12:28:00,
2014-01-20 07:33:00,33.4,27.5,29.63,SSE,149,0.0,0.0,79,0.00,,BKN045,0.00,VWS V14.01,2014-01-20 12:33:00,
2014-01-20 07:38:00,33.6,27.7,29.62,SSE,149,0.0,0.0,79,0.00,,BKN045,0.00,VWS V14.01,2014-01-20 12:38:00,
2014-01-20 07:43:00,33.6,27.9,29.63,SSE,149,0.0,0.0,79,0.00,,BKN045,0.00,VWS V14.01,2014-01-20 12:43:00,
2014-01-20 07:48:00,33.7,27.4,29.63,SSE,149,0.0,0.0,78,0.00,,BKN045,0.00,VWS V14.01,2014-01-20 12:48:00,
2014-01-20 07:53:00,33.8,27.8,29.62,SSE,149,0.0,0.0,78,0.00,,BKN045,0.00,VWS V14.01,2014-01-20 12:53:00,
2014-01-20 07:59:00,34.0,27.9,29.62,SSE,149,0.0,0.0,78,0.00,,BKN045,0.00,VWS V14.01,2014-01-20 12:59:00,
2014-01-20 08:04:00,34.0,27.5,29.63,SSE,149,0.0,0.0,77,0.00,,BKN050,0.00,VWS V14.01,2014-01-20 13:04:00,
2014-01-20 08:09:00,34.2,28.0,29.62,SSE,149,0.0,0.0,78,0.00,,BKN050,0.00,VWS V14.01,2014-01-20 13:09:00,
2014-01-20 08:14:00,34.3,28.3,29.63,SSE,149,0.0,0.0,78,0.00,,BKN050,0.00,VWS V14.01,2014-01-20 13:14:00,
2014-01-20 08:19:00,34.3,28.2,29.63,SSE,149,0.0,0.0,78,0.00,,BKN050,0.00,VWS V14.01,2014-01-20 13:19:00,
2014-01-20 08:24:00,34.3,28.3,29.63,SSE,149,0.0,0.0,78,0.00,,BKN050,0.00,VWS V14.01,2014-01-20 13:24:00,
2014-01-20 08:29:00,34.3,28.2,29.63,SSE,149,0.0,0.0,78,0.00,,BKN050,0.00,VWS V14.01,2014-01-20 13:29:00,
2014-01-20 08:34:00,34.5,28.6,29.63,SSE,149,0.0,0.0,79,0.00,,BKN050,0.00,VWS V14.01,2014-01-20 13:34:00,
2014-01-20 08:39:00,34.6,28.3,29.63,SSE,149,0.0,0.0,78,0.00,,BKN050,0.00,VWS V14.01,2014-01-20 13:39:00,
2014-01-20 08:44:00,34.7,28.5,29.64,SSE,149,0.0,0.0,78,0.00,,BKN050,0.00,VWS V14.01,2014-01-20 13:44:00,
2014-01-20 08:49:00,34.8,28.9,29.64,SSE,149,0.0,0.0,79,0.00,,BKN050,0.00,VWS V14.01,2014-01-20 13:49:00,
2014-01-20 08:54:00,34.9,28.9,29.64,SSE,149,0.0,0.0,79,0.00,,BKN050,0.00,VWS V14.01,2014-01-20 13:54:00,
2014-01-20 08:59:00,35.0,28.7,29.64,SSE,149,0.0,0.0,78,0.00,,BKN050,0.00,VWS V14.01,2014-01-20 13:59:00,
2014-01-20 09:04:00,35.2,28.8,29.63,SSE,149,0.0,0.0,77,0.00,,BKN050,0.00,VWS V14.01,2014-01-20 14:04:00,
2014-01-20 09:09:00,35.3,28.8,29.63,SSE,149,0.0,0.0,77,0.00,,BKN050,0.00,VWS V14.01,2014-01-20 14:09:00,
2014-01-20 09:14:00,35.5,28.8,29.63,SSE,149,0.0,0.0,76,0.00,,BKN050,0.00,VWS V14.01,2014-01-20 14:14:00,
2014-01-20 09:19:00,35.6,29.1,29.64,SSE,149,0.0,0.0,77,0.00,,BKN050,0.00,VWS V14.01,2014-01-20 14:19:00,
2014-01-20 09:24:00,35.8,28.9,29.64,SSE,149,0.0,0.0,76,0.00,,BKN050,0.00,VWS V14.01,2014-01-20 14:24:00,
2014-01-20 09:29:00,35.9,29.9,29.64,SSE,149,0.0,0.0,78,0.00,,BKN050,0.00,VWS V14.01,2014-01-20 14:29:00,
2014-01-20 09:34:00,35.9,29.6,29.64,SSE,149,0.0,0.0,78,0.00,,BKN050,0.00,VWS V14.01,2014-01-20 14:34:00,
2014-01-20 09:39:00,36.1,29.2,29.62,SSE,149,0.0,0.0,76,0.00,,BKN050,0.00,VWS V14.01,2014-01-20 14:39:00,
2014-01-20 09:44:00,36.5,29.8,29.62,SSE,149,0.0,0.0,76,0.00,,BKN050,0.00,VWS V14.01,2014-01-20 14:44:00,
2014-01-20 09:49:00,36.7,28.7,29.64,SSE,149,0.0,0.0,73,0.00,,BKN050,0.00,VWS V14.01,2014-01-20 14:49:00,
2014-01-20 09:55:00,37.0,29.4,29.64,SSE,149,0.0,0.0,74,0.00,,BKN050,0.00,VWS V14.01,2014-01-20 14:55:00,
2014-01-20 10:00:00,37.3,29.1,29.64,SSE,149,0.0,0.0,72,0.00,,BKN050,0.00,VWS V14.01,2014-01-20 15:00:00,
2014-01-20 10:05:00,37.4,29.4,29.65,SSE,149,0.0,0.0,72,0.00,,OVC060,0.00,VWS V14.01,2014-01-20 15:05:00,
2014-01-20 10:10:00,37.4,29.0,29.64,SSE,149,0.0,0.0,71,0.00,,OVC060,0.00,VWS V14.01,2014-01-20 15:10:00,
2014-01-20 10:15:00,37.6,29.5,29.64,SSE,149,0.0,0.0,72,0.00,,OVC060,0.00,VWS V14.01,2014-01-20 15:15:00,
2014-01-20 10:20:00,37.5,29.2,29.64,SSE,149,0.0,0.0,72,0.00,,OVC060,0.00,VWS V14.01,2014-01-20 15:20:00,
2014-01-20 10:25:00,37.6,29.3,29.64,SSE,149,0.0,0.0,72,0.00,,OVC060,0.00,VWS V14.01,2014-01-20 15:25:00,
2014-01-20 10:30:00,37.6,29.0,29.64,SSE,149,0.0,0.0,71,0.00,,OVC060,0.00,VWS V14.01,2014-01-20 15:30:00,
2014-01-20 10:35:00,37.8,28.8,29.64,SSE,149,0.0,0.0,70,0.00,,OVC060,0.00,VWS V14.01,2014-01-20 15:35:00,
2014-01-20 10:40:00,37.9,28.9,29.64,SSE,149,0.0,0.0,70,0.00,,OVC060,0.00,VWS V14.01,2014-01-20 15:40:00,
2014-01-20 10:45:00,37.9,28.3,29.63,SSE,149,0.0,0.0,68,0.00,,OVC060,0.00,VWS V14.01,2014-01-20 15:45:00,
2014-01-20 10:50:00,38.2,28.9,29.63,SSE,149,0.0,0.0,69,0.00,,OVC060,0.00,VWS V14.01,2014-01-20 15:50:00,
2014-01-20 10:55:00,38.2,28.5,29.63,SSE,149,0.0,0.0,68,0.00,,OVC060,0.00,VWS V14.01,2014-01-20 15:55:00,
2014-01-20 11:00:00,38.4,28.8,29.62,SSE,149,0.0,0.0,68,0.00,,OVC070,0.00,VWS V14.01,2014-01-20 16:00:00,
2014-01-20 11:05:00,38.6,28.6,29.62,SSE,149,0.0,0.0,67,0.00,,OVC070,0.00,VWS V14.01,2014-01-20 16:05:00,
2014-01-20 11:10:00,38.7,28.5,29.62,SSE,149,0.0,0.0,67,0.00,,OVC070,0.00,VWS V14.01,2014-01-20 16:10:00,
2014-01-20 11:15:00,38.9,29.2,29.62,SSE,149,0.0,0.0,68,0.01,,OVC070,0.01,VWS V14.01,2014-01-20 16:15:00,
2014-01-20 11:21:00,39.0,29.1,29.61,SSE,149,0.0,0.0,67,0.01,,OVC070,0.01,VWS V14.01,2014-01-20 16:21:00,
2014-01-20 11:26:00,38.9,29.0,29.61,SSE,149,0.0,0.0,67,0.01,,OVC070,0.01,VWS V14.01,2014-01-20 16:26:00,
2014-01-20 11:31:00,38.9,28.9,29.61,SSE,149,0.0,0.0,67,0.01,,OVC070,0.01,VWS V14.01,2014-01-20 16:31:00,
2014-01-20 11:36:00,39.0,28.9,29.61,SSE,149,0.0,0.0,67,0.01,,OVC070,0.01,VWS V14.01,2014-01-20 16:36:00,
2014-01-20 11:41:00,39.0,29.1,29.60,SSE,149,0.0,0.0,67,0.01,,OVC070,0.01,VWS V14.01,2014-01-20 16:41:00,
2014-01-20 11:46:00,39.1,29.0,29.60,SSE,149,0.0,0.0,67,0.01,,OVC070,0.01,VWS V14.01,2014-01-20 16:46:00,
2014-01-20 11:51:00,39.2,29.7,29.60,SSE,149,0.0,0.0,68,0.01,,OVC070,0.01,VWS V14.01,2014-01-20 16:51:00,
2014-01-20 11:56:00,39.3,28.6,29.59,SSE,149,0.0,0.0,65,0.01,,OVC070,0.01,VWS V14.01,2014-01-20 16:56:00,
2014-01-20 12:01:00,39.5,29.5,29.59,SSE,149,0.0,0.0,67,0.01,,OVC065,0.01,VWS V14.01,2014-01-20 17:01:00,
2014-01-20 12:06:00,39.8,29.7,29.59,SSE,149,0.0,0.0,67,0.01,,OVC065,0.01,VWS V14.01,2014-01-20 17:06:00,
2014-01-20 12:11:00,40.0,29.8,29.58,SSE,149,0.0,0.0,66,0.01,,OVC065,0.01,VWS V14.01,2014-01-20 17:11:00,
2014-01-20 12:16:00,40.1,29.7,29.58,SSE,149,0.0,0.0,66,0.01,,OVC065,0.01,VWS V14.01,2014-01-20 17:16:00,
2014-01-20 12:21:00,40.2,30.1,29.58,SSE,149,0.0,0.0,67,0.02,,OVC065,0.02,VWS V14.01,2014-01-20 17:21:00,
2014-01-20 12:26:00,40.4,29.7,29.59,SSE,149,0.0,0.0,65,0.01,,OVC065,0.02,VWS V14.01,2014-01-20 17:26:00,
2014-01-20 12:31:00,40.6,29.6,29.58,SSE,149,0.0,0.0,65,0.01,,OVC065,0.02,VWS V14.01,2014-01-20 17:31:00,
2014-01-20 12:36:00,40.7,29.8,29.58,SSE,149,0.0,0.0,65,0.01,,OVC065,0.02,VWS V14.01,2014-01-20 17:36:00,
2014-01-20 12:41:00,40.8,29.2,29.57,SSE,149,0.0,0.0,63,0.01,,OVC065,0.02,VWS V14.01,2014-01-20 17:41:00,
2014-01-20 12:46:00,40.9,29.4,29.58,SSE,149,0.0,0.0,63,0.01,,OVC065,0.02,VWS V14.01,2014-01-20 17:46:00,
2014-01-20 12:51:00,40.9,29.9,29.58,SSE,149,0.0,0.0,65,0.01,,OVC065,0.02,VWS V14.01,2014-01-20 17:51:00,
2014-01-20 12:56:00,41.0,29.2,29.58,SSE,149,0.0,0.0,63,0.01,,OVC065,0.02,VWS V14.01,2014-01-20 17:56:00,
2014-01-20 13:01:00,41.2,29.7,29.58,SSE,149,0.0,0.0,63,0.01,,OVC070,0.02,VWS V14.01,2014-01-20 18:01:00,
2014-01-20 13:07:00,41.2,30.3,29.57,SSE,149,0.0,0.0,65,0.01,,OVC070,0.02,VWS V14.01,2014-01-20 18:07:00,
2014-01-20 13:12:00,41.3,30.4,29.57,SSE,149,0.0,0.0,65,0.01,,OVC070,0.02,VWS V14.01,2014-01-20 18:12:00,
2014-01-20 13:17:00,41.3,30.1,29.57,SSE,149,0.0,0.0,64,0.01,,OVC070,0.02,VWS V14.01,2014-01-20 18:17:00,
2014-01-20 13:22:00,41.4,30.0,29.57,SSE,149,0.0,0.0,64,0.00,,OVC070,0.02,VWS V14.01,2014-01-20 18:22:00,
2014-01-20 13:27:00,41.5,30.4,29.57,SSE,149,0.0,0.0,64,0.00,,OVC070,0.02,VWS V14.01,2014-01-20 18:27:00,
2014-01-20 13:32:00,41.4,30.1,29.57,SSE,149,0.0,0.0,64,0.00,,OVC070,0.02,VWS V14.01,2014-01-20 18:32:00,
2014-01-20 13:37:00,41.3,30.0,29.58,SSE,149,0.0,0.0,64,0.00,,OVC070,0.02,VWS V14.01,2014-01-20 18:37:00,
2014-01-20 13:42:00,41.1,29.9,29.58,SSE,149,0.0,0.0,64,0.00,,OVC070,0.02,VWS V14.01,2014-01-20 18:42:00,
2014-01-20 13:47:00,41.0,29.9,29.58,SSE,149,0.0,0.0,64,0.00,,OVC070,0.02,VWS V14.01,2014-01-20 18:47:00,
2014-01-20 13:52:00,40.9,29.6,29.58,SSE,149,0.0,0.0,64,0.00,,OVC070,0.02,VWS V14.01,2014-01-20 18:52:00,
2014-01-20 13:57:00,41.0,30.0,29.58,SSE,149,0.0,0.0,65,0.00,,OVC070,0.02,VWS V14.01,2014-01-20 18:57:00,
2014-01-20 14:02:00,41.1,29.9,29.58,SSE,149,0.0,0.0,64,0.00,,OVC200,0.02,VWS V14.01,2014-01-20 19:02:00,
2014-01-20 14:07:00,41.2,30.6,29.58,SSE,149,0.0,0.0,66,0.00,,OVC200,0.02,VWS V14.01,2014-01-20 19:07:00,
2014-01-20 14:12:00,41.1,30.2,29.58,SSE,149,0.0,0.0,65,0.00,,OVC200,0.02,VWS V14.01,2014-01-20 19:12:00,
2014-01-20 14:17:00,41.1,29.9,29.58,SSE,149,0.0,0.0,64,0.00,,OVC200,0.02,VWS V14.01,2014-01-20 19:17:00,
2014-01-20 14:22:00,41.1,29.8,29.58,SSE,149,0.0,0.0,64,0.00,,OVC200,0.02,VWS V14.01,2014-01-20 19:22:00,
2014-01-20 14:27:00,41.2,30.2,29.58,SSE,149,0.0,0.0,65,0.00,,OVC200,0.02,VWS V14.01,2014-01-20 19:27:00,
2014-01-20 14:32:00,41.2,30.4,29.58,SSE,149,0.0,0.0,65,0.00,,OVC200,0.02,VWS V14.01,2014-01-20 19:32:00,
2014-01-20 14:37:00,41.3,30.2,29.58,SSE,149,0.0,0.0,64,0.00,,OVC200,0.02,VWS V14.01,2014-01-20 19:37:00,
2014-01-20 14:43:00,41.5,31.0,29.58,SSE,149,0.0,0.0,66,0.00,,OVC200,0.02,VWS V14.01,2014-01-20 19:43:00,
2014-01-20 14:48:00,41.6,31.0,29.59,SSE,149,0.0,0.0,66,0.00,,OVC200,0.02,VWS V14.01,2014-01-20 19:48:00,
2014-01-20 14:53:00,41.4,30.4,29.59,SSE,149,0.0,0.0,65,0.00,,OVC200,0.02,VWS V14.01,2014-01-20 19:53:00,
2014-01-20 14:58:00,41.3,30.7,29.59,SSE,149,0.0,0.0,66,0.00,,OVC200,0.02,VWS V14.01,2014-01-20 19:58:00,
2014-01-20 15:03:00,41.4,30.5,29.60,SSE,149,0.0,0.0,65,0.00,,BKN200,0.02,VWS V14.01,2014-01-20 20:03:00,
2014-01-20 15:08:00,41.4,30.5,29.61,SSE,149,0.0,0.0,65,0.00,,BKN200,0.02,VWS V14.01,2014-01-20 20:08:00,
2014-01-20 15:13:00,41.3,30.9,29.60,SSE,149,0.0,0.0,66,0.00,,BKN200,0.02,VWS V14.01,2014-01-20 20:13:00,
2014-01-20 15:18:00,41.1,30.7,29.61,SSE,149,0.0,0.0,66,0.00,,BKN200,0.02,VWS V14.01,2014-01-20 20:18:00,
2014-01-20 15:23:00,41.2,30.7,29.61,SSE,149,0.0,0.0,66,0.00,,BKN200,0.02,VWS V14.01,2014-01-20 20:23:00,
2014-01-20 15:28:00,41.2,30.5,29.62,SSE,149,0.0,0.0,66,0.00,,BKN200,0.02,VWS V14.01,2014-01-20 20:28:00,
2014-01-20 15:33:00,41.2,30.9,29.63,SSE,149,0.0,0.0,66,0.00,,BKN200,0.02,VWS V14.01,2014-01-20 20:33:00,
2014-01-20 15:38:00,41.1,30.5,29.63,SSE,149,0.0,0.0,66,0.00,,BKN200,0.02,VWS V14.01,2014-01-20 20:38:00,
2014-01-20 15:43:00,41.0,30.4,29.63,SSE,149,0.0,0.0,66,0.00,,BKN200,0.02,VWS V14.01,2014-01-20 20:43:00,
2014-01-20 15:48:00,41.0,30.9,29.63,SSE,149,0.0,0.0,67,0.00,,BKN200,0.02,VWS V14.01,2014-01-20 20:48:00,
2014-01-20 15:53:00,41.0,30.9,29.64,SSE,149,0.0,0.0,67,0.00,,BKN200,0.02,VWS V14.01,2014-01-20 20:53:00,
2014-01-20 15:59:00,40.9,31.1,29.64,SSE,149,0.0,0.0,68,0.00,,BKN200,0.02,VWS V14.01,2014-01-20 20:59:00,
2014-01-20 16:04:00,40.5,30.6,29.63,SSE,149,0.0,0.0,68,0.00,,BKN200,0.02,VWS V14.01,2014-01-20 21:04:00,
2014-01-20 16:09:00,40.5,30.8,29.64,SSE,149,0.0,0.0,68,0.00,,BKN200,0.02,VWS V14.01,2014-01-20 21:09:00,
2014-01-20 16:14:00,40.5,30.9,29.64,SSE,149,0.0,0.0,68,0.00,,BKN200,0.02,VWS V14.01,2014-01-20 21:14:00,
2014-01-20 16:19:00,40.4,31.0,29.66,SSE,149,0.0,0.0,69,0.00,,BKN200,0.02,VWS V14.01,2014-01-20 21:19:00,
2014-01-20 16:24:00,40.1,31.3,29.66,SSE,149,0.0,0.0,70,0.00,,BKN200,0.02,VWS V14.01,2014-01-20 21:24:00,
2014-01-20 16:29:00,40.0,31.0,29.66,SSE,149,0.0,0.0,70,0.00,,BKN200,0.02,VWS V14.01,2014-01-20 21:29:00,
2014-01-20 16:34:00,40.0,30.8,29.67,SSE,149,0.0,0.0,70,0.00,,BKN200,0.02,VWS V14.01,2014-01-20 21:34:00,
2014-01-20 16:39:00,40.2,31.0,29.67,SSE,149,0.0,0.0,69,0.00,,BKN200,0.02,VWS V14.01,2014-01-20 21:39:00,
2014-01-20 16:44:00,40.2,30.8,29.67,SSE,149,0.0,0.0,69,0.00,,BKN200,0.02,VWS V14.01,2014-01-20 21:44:00,
2014-01-20 16:49:00,40.3,31.0,29.67,SSE,149,0.0,0.0,69,0.00,,BKN200,0.02,VWS V14.01,2014-01-20 21:49:00,
2014-01-20 16:54:00,40.3,31.2,29.67,SSE,149,0.0,0.0,70,0.00,,BKN200,0.02,VWS V14.01,2014-01-20 21:54:00,
2014-01-20 17:00:00,40.1,31.3,29.68,SSE,149,0.0,0.0,70,0.00,,BKN200,0.02,VWS V14.01,2014-01-20 22:00:00,
2014-01-20 17:05:00,40.1,31.4,29.68,SSE,149,0.0,0.0,71,0.00,,BKN200,0.02,VWS V14.01,2014-01-20 22:05:00,
2014-01-20 17:10:00,39.9,31.1,29.68,SSE,149,0.0,0.0,70,0.00,,BKN200,0.02,VWS V14.01,2014-01-20 22:10:00,
2014-01-20 17:15:00,39.9,31.1,29.68,SSE,149,0.0,0.0,71,0.00,,BKN200,0.02,VWS V14.01,2014-01-20 22:15:00,
2014-01-20 17:20:00,39.7,31.0,29.69,SSE,149,0.0,0.0,71,0.00,,BKN200,0.02,VWS V14.01,2014-01-20 22:20:00,
2014-01-20 17:25:00,39.6,31.0,29.69,SSE,149,0.0,0.0,71,0.00,,BKN200,0.02,VWS V14.01,2014-01-20 22:25:00,
2014-01-20 17:30:00,39.7,31.4,29.69,SSE,149,0.0,0.0,72,0.00,,BKN200,0.02,VWS V14.01,2014-01-20 22:30:00,
2014-01-20 17:35:00,39.6,31.1,29.69,SSE,149,0.0,0.0,71,0.00,,BKN200,0.02,VWS V14.01,2014-01-20 22:35:00,
2014-01-20 17:40:00,39.8,32.0,29.69,SSE,149,0.0,0.0,73,0.00,,BKN200,0.02,VWS V14.01,2014-01-20 22:40:00,
2014-01-20 17:45:00,39.7,31.2,29.70,SSE,149,0.0,0.0,71,0.00,,BKN200,0.02,VWS V14.01,2014-01-20 22:45:00,
2014-01-20 17:50:00,39.5,31.3,29.70,SSE,149,0.0,0.0,72,0.00,,BKN200,0.02,VWS V14.01,2014-01-20 22:50:00,
2014-01-20 17:56:00,39.6,31.2,29.70,SSE,149,0.0,0.0,72,0.00,,BKN200,0.02,VWS V14.01,2014-01-20 22:56:00,
2014-01-20 18:01:00,39.5,31.4,29.71,SSE,149,0.0,0.0,72,0.00,,BKN200,0.02,VWS V14.01,2014-01-20 23:01:00,
2014-01-20 18:06:00,39.4,31.3,29.71,SSE,149,0.0,0.0,73,0.00,,BKN200,0.02,VWS V14.01,2014-01-20 23:06:00,
2014-01-20 18:11:00,39.4,31.5,29.71,SSE,149,0.0,0.0,73,0.00,,BKN200,0.02,VWS V14.01,2014-01-20 23:11:00,
2014-01-20 18:16:00,39.5,31.5,29.72,SSE,149,0.0,0.0,73,0.00,,BKN200,0.02,VWS V14.01,2014-01-20 23:16:00,
2014-01-20 18:21:00,39.2,31.6,29.72,SSE,149,0.0,0.0,74,0.00,,BKN200,0.02,VWS V14.01,2014-01-20 23:21:00,
2014-01-20 18:26:00,39.2,31.4,29.72,SSE,149,0.0,0.0,73,0.00,,BKN200,0.02,VWS V14.01,2014-01-20 23:26:00,
2014-01-20 18:31:00,39.1,31.6,29.73,SSE,149,0.0,0.0,74,0.00,,BKN200,0.02,VWS V14.01,2014-01-20 23:31:00,
2014-01-20 18:36:00,39.2,31.7,29.73,SSE,149,0.0,0.0,74,0.00,,BKN200,0.02,VWS V14.01,2014-01-20 23:36:00,
2014-01-20 18:41:00,39.1,31.7,29.74,SSE,149,0.0,0.0,74,0.00,,BKN200,0.02,VWS V14.01,2014-01-20 23:41:00,
2014-01-20 18:46:00,39.1,32.0,29.74,SSE,149,0.0,0.0,75,0.00,,BKN200,0.02,VWS V14.01,2014-01-20 23:46:00,
2014-01-20 18:51:00,39.1,32.0,29.74,SSE,149,0.0,0.0,75,0.00,,BKN200,0.02,VWS V14.01,2014-01-20 23:51:00,
2014-01-20 18:56:00,39.0,32.0,29.74,SSE,149,0.0,0.0,76,0.00,,BKN200,0.02,VWS V14.01,2014-01-20 23:56:00,
2014-01-20 19:02:00,38.8,31.8,29.75,SSE,149,0.0,0.0,76,0.00,,BKN200,0.02,VWS V14.01,2014-01-21 00:02:00,
2014-01-20 19:07:00,38.7,32.2,29.75,SSE,149,0.0,0.0,77,0.00,,BKN200,0.02,VWS V14.01,2014-01-21 00:07:00,
2014-01-20 19:12:00,38.5,32.2,29.76,SSE,149,0.0,0.0,78,0.00,,BKN200,0.02,VWS V14.01,2014-01-21 00:12:00,
2014-01-20 19:17:00,38.5,32.1,29.76,SSE,149,0.0,0.0,78,0.00,,BKN200,0.02,VWS V14.01,2014-01-21 00:17:00,
2014-01-20 19:22:00,38.3,31.6,29.76,SSE,149,0.0,0.0,77,0.00,,BKN200,0.02,VWS V14.01,2014-01-21 00:22:00,
2014-01-20 19:27:00,38.2,31.8,29.78,SSE,149,0.0,0.0,78,0.00,,BKN200,0.02,VWS V14.01,2014-01-21 00:27:00,
2014-01-20 19:32:00,38.0,31.1,29.78,SSE,149,0.0,0.0,76,0.00,,BKN200,0.02,VWS V14.01,2014-01-21 00:32:00,
2014-01-20 19:37:00,37.8,30.8,29.78,SSE,149,0.0,0.0,76,0.00,,BKN200,0.02,VWS V14.01,2014-01-21 00:37:00,
2014-01-20 19:42:00,37.7,30.7,29.78,SSE,149,0.0,0.0,76,0.00,,BKN200,0.02,VWS V14.01,2014-01-21 00:42:00,
2014-01-20 19:47:00,37.6,30.7,29.78,SSE,149,0.0,0.0,76,0.00,,BKN200,0.02,VWS V14.01,2014-01-21 00:47:00,
2014-01-20 19:53:00,37.6,30.6,29.79,SSE,149,0.0,0.0,76,0.00,,BKN200,0.02,VWS V14.01,2014-01-21 00:53:00,
2014-01-20 19:58:00,37.6,31.0,29.79,SSE,149,0.0,0.0,77,0.00,,BKN200,0.02,VWS V14.01,2014-01-21 00:58:00,
2014-01-20 20:03:00,37.5,30.7,29.79,SSE,149,0.0,0.0,76,0.00,,BKN200,0.02,VWS V14.01,2014-01-21 01:03:00,
2014-01-20 20:08:00,37.4,30.7,29.80,SSE,149,0.0,0.0,77,0.00,,BKN200,0.02,VWS V14.01,2014-01-21 01:08:00,
2014-01-20 20:13:00,37.3,30.9,29.80,SSE,149,0.0,0.0,78,0.00,,BKN200,0.02,VWS V14.01,2014-01-21 01:13:00,
2014-01-20 20:18:00,37.2,30.5,29.80,SSE,149,0.0,0.0,76,0.00,,BKN200,0.02,VWS V14.01,2014-01-21 01:18:00,
2014-01-20 20:23:00,36.9,29.8,29.80,SSE,149,0.0,0.0,75,0.00,,BKN200,0.02,VWS V14.01,2014-01-21 01:23:00,
2014-01-20 20:28:00,36.8,29.3,29.80,SSE,149,0.0,0.0,74,0.00,,BKN200,0.02,VWS V14.01,2014-01-21 01:28:00,
2014-01-20 20:33:00,36.8,29.1,29.80,SSE,149,0.0,0.0,74,0.00,,BKN200,0.02,VWS V14.01,2014-01-21 01:33:00,
2014-01-20 20:38:00,36.6,28.7,29.81,SSE,149,0.0,0.0,73,0.00,,BKN200,0.02,VWS V14.01,2014-01-21 01:38:00,
2014-01-20 20:43:00,36.4,27.9,29.81,SSE,149,0.0,0.0,71,0.00,,BKN200,0.02,VWS V14.01,2014-01-21 01:43:00,
2014-01-20 20:48:00,36.3,28.4,29.81,SSE,149,0.0,0.0,73,0.00,,BKN200,0.02,VWS V14.01,2014-01-21 01:48:00,
2014-01-20 20:53:00,35.9,27.0,29.82,SSE,149,0.0,0.0,70,0.00,,BKN200,0.02,VWS V14.01,2014-01-21 01:53:00,
2014-01-20 20:58:00,35.7,26.9,29.82,SSE,149,0.0,0.0,70,0.00,,BKN200,0.02,VWS V14.01,2014-01-21 01:58:00,
2014-01-20 21:03:00,35.5,26.4,29.82,SSE,149,0.0,0.0,69,0.00,,OVC075,0.02,VWS V14.01,2014-01-21 02:03:00,
2014-01-20 21:08:00,35.1,25.3,29.83,SSE,149,0.0,0.0,67,0.00,,OVC075,0.02,VWS V14.01,2014-01-21 02:08:00,
2014-01-20 21:13:00,34.8,24.9,29.83,SSE,149,0.0,0.0,67,0.00,,OVC075,0.02,VWS V14.01,2014-01-21 02:13:00,
2014-01-20 21:18:00,34.3,24.9,29.83,SSE,149,0.0,0.0,68,0.00,,OVC075,0.02,VWS V14.01,2014-01-21 02:18:00,
2014-01-20 21:23:00,34.4,25.2,29.84,SSE,149,0.0,0.0,69,0.00,,OVC075,0.02,VWS V14.01,2014-01-21 02:23:00,
2014-01-20 21:28:00,34.0,24.0,29.84,SSE,149,0.0,0.0,66,0.00,,OVC075,0.02,VWS V14.01,2014-01-21 02:28:00,
2014-01-20 21:33:00,33.8,23.5,29.84,SSE,149,0.0,0.0,66,0.00,,OVC075,0.02,VWS V14.01,2014-01-21 02:33:00,
2014-01-20 21:38:00,33.8,23.4,29.84,SSE,149,0.0,0.0,65,0.00,,OVC075,0.02,VWS V14.01,2014-01-21 02:38:00,
2014-01-20 21:44:00,33.6,23.2,29.85,SSE,149,0.0,0.0,65,0.00,,OVC075,0.02,VWS V14.01,2014-01-21 02:44:00,
2014-01-20 21:49:00,33.4,22.7,29.85,SSE,149,0.0,0.0,64,0.00,,OVC075,0.02,VWS V14.01,2014-01-21 02:49:00,
2014-01-20 21:54:00,33.2,21.9,29.86,SSE,149,0.0,0.0,63,0.00,,OVC075,0.02,VWS V14.01,2014-01-21 02:54:00,
2014-01-20 21:59:00,32.9,21.7,29.85,SSE,149,0.0,0.0,63,0.00,,OVC075,0.02,VWS V14.01,2014-01-21 02:59:00,
2014-01-20 22:04:00,32.7,21.9,29.85,SSE,149,0.0,0.0,64,0.00,,BKN075,0.02,VWS V14.01,2014-01-21 03:04:00,
2014-01-20 22:09:00,32.6,22.1,29.85,SSE,149,0.0,0.0,65,0.00,,BKN075,0.02,VWS V14.01,2014-01-21 03:09:00,
2014-01-20 22:14:00,32.4,21.6,29.85,SSE,149,0.0,0.0,64,0.00,,BKN075,0.02,VWS V14.01,2014-01-21 03:14:00,
2014-01-20 22:19:00,32.4,22.3,29.86,SSE,149,0.0,0.0,66,0.00,,BKN075,0.02,VWS V14.01,2014-01-21 03:19:00,
2014-01-20 22:24:00,32.2,21.6,29.86,SSE,149,0.0,0.0,64,0.00,,BKN075,0.02,VWS V14.01,2014-01-21 03:24:00,
2014-01-20 22:29:00,31.9,21.4,29.86,SSE,149,0.0,0.0,65,0.00,,BKN075,0.02,VWS V14.01,2014-01-21 03:29:00,
2014-01-20 22:34:00,31.8,21.4,29.86,SSE,149,0.0,0.0,65,0.00,,BKN075,0.02,VWS V14.01,2014-01-21 03:34:00,
2014-01-20 22:39:00,31.7,21.3,29.87,SSE,149,0.0,0.0,65,0.00,,BKN075,0.02,VWS V14.01,2014-01-21 03:39:00,
2014-01-20 22:44:00,31.6,20.6,29.87,SSE,149,0.0,0.0,63,0.00,,BKN075,0.02,VWS V14.01,2014-01-21 03:44:00,
2014-01-20 22:49:00,31.6,21.0,29.88,SSE,149,0.0,0.0,64,0.00,,BKN075,0.02,VWS V14.01,2014-01-21 03:49:00,
2014-01-20 22:50:00,31.6,21.2,29.88,SSE,149,0.0,0.0,65,0.00,,BKN075,0.02,VWS V14.01,2014-01-21 03:50:00,
2014-01-20 22:55:00,31.4,21.4,29.88,SSE,149,0.0,0.0,66,0.00,,BKN075,0.02,VWS V14.01,2014-01-21 03:55:00,
2014-01-20 23:00:00,31.3,21.0,29.88,SSE,149,0.0,0.0,65,0.00,,FEW075,0.02,VWS V14.01,2014-01-21 04:00:00,
2014-01-20 23:05:00,31.0,20.4,29.88,SSE,149,0.0,0.0,64,0.00,,FEW075,0.02,VWS V14.01,2014-01-21 04:05:00,
2014-01-20 23:10:00,30.6,20.0,29.88,SSE,149,0.0,0.0,64,0.00,,FEW075,0.02,VWS V14.01,2014-01-21 04:10:00,
2014-01-20 23:15:00,30.6,20.0,29.88,SSE,149,0.0,0.0,64,0.00,,FEW075,0.02,VWS V14.01,2014-01-21 04:15:00,
2014-01-20 23:20:00,30.3,19.4,29.89,SSE,149,0.0,0.0,63,0.00,,FEW075,0.02,VWS V14.01,2014-01-21 04:20:00,
2014-01-20 23:25:00,30.3,19.9,29.89,SSE,149,0.0,0.0,65,0.00,,FEW075,0.02,VWS V14.01,2014-01-21 04:25:00,
2014-01-20 23:30:00,30.3,20.2,29.89,SSE,149,0.0,0.0,66,0.00,,FEW075,0.02,VWS V14.01,2014-01-21 04:30:00,
2014-01-20 23:35:00,30.0,19.0,29.89,SSE,149,0.0,0.0,63,0.00,,FEW075,0.02,VWS V14.01,2014-01-21 04:35:00,
2014-01-20 23:41:00,29.8,19.7,29.90,SSE,149,0.0,0.0,66,0.00,,FEW075,0.02,VWS V14.01,2014-01-21 04:41:00,
2014-01-20 23:46:00,29.7,19.4,29.90,SSE,149,0.0,0.0,65,0.00,,FEW075,0.02,VWS V14.01,2014-01-21 04:46:00,
2014-01-20 23:51:00,29.5,18.7,29.91,SSE,149,0.0,0.0,64,0.00,,FEW075,0.02,VWS V14.01,2014-01-21 04:51:00,
2014-01-20 23:56:00,29.4,18.5,29.90,SSE,149,0.0,0.0,63,0.00,,FEW075,0.02,VWS V14.01,2014-01-21 04:56:00,